Theta_e
337 339 339 343 344 342 341 337 337 336 336 336 335 334 332 334 332 332 331 354 352 352 354 355 354 354 354 354 353 353 353 353 355 355 353 352 351 352 352 352 352 352 351
337 341 338 341 342 341 341 339 337 337 335 336 334 335 336 335 335 334 334 335 351 350 351 353 354 355 356 356 355 354 354 353 353 354 354 352 352 351 352 352 352 351 351
338 341 340 338 337 338 338 340 339 340 341 339 337 338 337 335 336 335 335 336 339 349 349 350 352 355 355 356 356 356 354 354 354 353 352 352 351 351 351 352 352 351 351
343 342 339 339 338 337 339 338 336 336 336 338 338 338 338 337 336 334 335 336 338 342 349 350 352 353 354 355 355 355 353 352 351 351 350 352 352 351 350 351 350 350 343
346 349 344 344 348 345 347 346 344 342 340 340 341 338 337 336 337 339 336 342 343 346 348 347 350 350 351 354 355 354 353 351 349 349 350 350 350 350 349 349 347 346 342
347 348 348 349 347 347 344 345 343 344 342 342 344 342 340 340 343 341 341 343 340 340 341 340 344 344 348 351 352 352 352 352 350 349 347 346 346 349 349 347 346 343 344
351 350 348 347 349 346 344 344 343 341 342 342 337 335 337 337 337 340 334 333 334 333 339 338 336 338 337 345 346 349 351 351 352 349 346 344 344 346 346 346 344 343 343
353 353 352 351 352 347 345 344 344 339 340 342 333 332 327 329 334 337 335 333 330 331 334 335 336 337 339 341 342 345 341 343 345 347 346 344 342 343 344 344 344 344 344
356 354 353 352 351 348 343 343 344 341 338 339 338 331 323 321 325 330 331 331 330 331 333 333 336 332 338 341 341 336 339 337 336 335 340 341 342 344 344 343 342 342 343
352 352 352 353 350 347 344 342 336 341 339 335 334 339 335 329 322 319 326 330 332 334 332 332 336 337 338 333 336 334 333 334 334 333 335 340 343 339 337 336 342 343 343
351 352 350 348 346 346 339 340 339 340 339 336 333 333 331 329 329 322 320 324 328 330 333 335 338 334 331 329 328 330 331 330 332 333 334 334 336 338 341 338 343 344 344
349 349 349 346 345 344 341 341 341 339 337 337 336 333 330 328 327 322 321 322 324 328 328 330 330 331 330 327 330 332 328 328 327 327 329 330 333 336 339 342 345 345 344
343 344 343 342 341 342 341 339 335 335 336 334 333 333 332 330 329 328 325 322 321 323 325 327 327 328 329 329 325 329 329 326 324 322 323 326 328 332 332 338 341 342 343
343 341 341 340 339 339 339 337 337 337 336 334 330 330 332 333 333 330 327 323 321 318 321 321 325 327 324 327 327 330 325 326 324 323 322 323 324 327 327 329 332 335 336
340 339 337 336 336 336 336 335 332 332 333 332 332 331 331 332 330 326 325 324 319 317 318 319 320 324 326 325 328 325 326 326 326 323 321 321 321 323 324 325 326 327 329
336 335 333 332 332 330 330 329 328 327 325 324 325 322 322 322 322 323 323 322 320 317 315 319 319 321 324 327 329 327 328 327 325 324 323 321 320 321 321 321 321 322 325
331 331 331 329 323 321 319 316 314 314 314 314 315 316 315 315 314 314 315 313 311 311 311 314 319 320 321 321 323 326 327 324 324 323 324 323 320 318 319 319 319 319 320
320 319 319 317 315 316 310 308 307 307 307 307 308 310 312 316 312 309 308 304 303 305 303 302 307 308 313 315 319 320 323 328 325 326 322 320 318 317 316 317 317 317 316
312 312 312 311 310 307 306 305 305 304 303 303 305 306 307 309 305 305 303 303 303 305 302 300 300 304 305 307 308 309 310 311 314 318 318 319 317 317 317 316 315 314 313
310 310 310 306 303 302 302 302 303 301 301 302 303 305 308 305 303 302 302 302 301 299 299 299 300 301 302 303 303 302 301 304 304 310 314 312 313 313 315 316 316 316 313
309 309 309 302 301 300 300 298 298 299 299 300 302 308 308 309 310 308 302 299 298 297 297 297 297 296 297 298 298 299 298 299 300 302 304 304 306 306 308 311 315 316 313
306 305 304 300 297 299 298 300 299 297 301 304 304 304 306 306 305 305 304 305 303 297 300 300 300 299 300 301 300 297 297 297 294 299 299 299 302 302 304 306 309 309 308
303 302 299 297 295 295 296 296 300 300 302 302 303 304 305 301 299 298 298 301 301 303 303 302 298 297 297 299 301 300 299 298 297 299 298 297 301 299 302 305 305 306 306
302 301 300 297 295 295 296 295 297 296 299 300 300 302 299 297 297 296 296 297 298 302 300 300 298 300 301 301 301 301 300 300 301 302 301 296 300 299 301 302 304 304 304
301 299 299 298 294 292 295 295 295 296 296 297 298 301 299 297 296 295 295 296 297 298 302 301 300 299 298 298 300 301 299 298 297 299 302 300 300 300 301 301 303 304 303
300 300 299 298 298 291 294 294 295 294 291 294 299 298 298 297 295 294 293 298 296 295 296 300 301 300 300 300 301 300 299 297 296 296 302 299 301 301 298 302 302 302 303
Wind_Speed
5 5 5 6 6 5 6 6 6 7 7 9 9 9 7 8 7 4 3 11 12 14 12 12 14 15 14 14 14 15 16 16 15 16 17 18 18 18 18 18 17 15 14
5 5 6 7 6 6 5 5 6 6 7 7 8 9 9 6 6 5 4 4 12 13 14 15 17 16 15 15 15 14 14 14 15 16 17 18 18 18 19 18 17 16 14
7 5 5 5 5 5 6 6 6 4 5 5 7 6 4 6 6 6 6 5 5 13 13 15 16 15 15 14 12 12 13 13 15 14 16 16 18 19 18 18 17 16 12
8 6 4 4 5 4 3 3 4 3 1 1 0 2 3 4 6 6 5 5 3 4 5 17 17 15 14 10 9 12 13 13 13 13 15 16 18 18 17 18 18 13 9
10 6 4 4 4 3 3 2 1 2 1 1 3 4 4 4 5 4 4 3 3 3 3 9 23 8 8 8 9 11 14 13 12 12 14 16 18 17 17 15 16 12 11
10 7 5 3 3 3 3 2 3 3 3 3 3 3 4 4 3 3 3 3 5 4 5 6 2 3 8 9 11 15 17 15 13 13 15 13 13 16 16 13 16 17 14
10 8 5 5 4 3 4 4 3 4 2 1 1 3 3 5 6 4 3 3 6 4 5 4 3 4 5 13 9 14 17 14 12 13 13 11 10 10 9 14 15 13 14
12 11 10 6 5 3 3 3 2 3 2 3 3 2 3 5 3 3 3 5 7 3 5 4 5 5 3 4 7 8 2 5 9 10 12 12 12 13 12 12 13 12 13
10 9 8 6 5 4 4 5 3 7 5 4 5 3 1 4 3 3 3 5 6 3 4 4 6 4 6 5 6 3 2 3 4 3 6 3 4 2 7 8 9 9 10
7 6 6 4 5 4 4 4 3 6 3 5 2 3 2 3 3 4 3 4 5 5 4 4 5 4 4 5 3 4 3 2 1 2 5 7 4 7 6 6 4 3 4
6 5 4 3 3 3 3 4 4 4 0 1 2 2 3 3 3 3 4 5 4 4 2 4 6 5 6 4 4 5 5 4 2 1 3 6 7 5 9 8 7 7 4
4 4 5 4 3 3 3 2 2 1 2 2 2 3 3 3 1 1 3 4 6 8 3 3 4 4 4 5 6 6 4 5 5 2 2 2 7 8 7 6 4 5 4
3 4 4 4 2 3 5 4 4 3 3 1 2 2 1 1 1 2 2 3 3 3 4 4 3 4 4 4 4 7 6 6 6 6 7 5 6 8 10 6 4 5 5
5 7 7 7 6 6 6 5 3 3 3 3 4 3 2 3 2 1 1 2 3 3 2 5 3 5 3 2 1 3 2 7 10 7 10 9 8 8 9 7 5 6 5
8 9 8 6 6 6 7 5 4 5 4 4 4 5 3 3 3 3 2 0 2 3 3 4 2 5 4 4 5 4 3 10 19 11 11 9 8 9 10 9 7 8 6
10 9 7 7 7 7 6 7 4 5 6 5 4 6 5 4 5 4 3 2 1 2 4 2 2 3 3 3 4 3 6 11 18 18 15 11 9 12 10 9 8 6 5
8 8 6 8 7 7 7 8 8 9 9 7 7 6 7 5 4 4 5 5 5 5 5 4 3 4 4 6 6 5 6 5 5 17 17 15 9 7 13 12 9 9 9
8 9 10 10 11 11 11 10 9 8 8 8 7 7 6 4 5 5 4 5 5 4 2 5 5 6 4 7 7 8 6 6 6 10 13 14 13 12 12 13 10 12 11
11 11 11 12 12 11 10 9 8 7 7 7 7 7 7 4 4 4 4 5 4 4 4 3 4 4 4 8 7 6 9 10 9 18 16 11 12 14 15 15 16 15 14
11 10 10 12 12 11 10 9 7 7 7 6 7 7 6 7 7 6 6 6 5 5 4 3 4 5 5 8 4 6 10 5 8 9 7 8 11 13 12 13 15 14 15
9 9 13 11 10 10 8 6 6 6 6 6 6 5 7 13 14 11 3 5 5 4 4 4 5 4 4 6 5 4 4 7 7 4 6 8 10 9 8 8 9 9 11
9 8 12 11 10 8 10 11 8 4 5 5 5 4 4 11 12 11 12 12 8 3 6 5 5 7 8 6 4 3 4 6 6 1 6 9 5 8 9 8 10 14 8
7 10 10 11 9 7 11 11 12 5 3 5 5 4 7 7 9 8 10 11 9 10 8 4 5 5 6 7 8 8 8 7 8 9 4 10 6 8 7 8 12 12 12
10 9 9 8 9 7 12 13 11 6 6 7 6 6 8 7 7 7 6 6 7 6 6 6 4 6 6 7 6 7 8 9 9 8 5 10 7 8 6 7 13 14 14
10 9 8 8 8 6 11 13 9 7 7 6 8 9 8 6 8 9 5 6 6 6 9 10 9 10 9 11 10 6 6 8 10 9 8 8 8 8 7 8 10 13 14
8 7 6 7 9 6 9 14 11 6 6 5 4 5 10 6 7 8 5 5 6 8 9 11 10 7 7 7 10 5 4 7 9 9 1 4 5 6 6 6 6 4 4
Wind_Direction
188 189 180 180 190 187 197 209 205 210 215 222 231 239 237 220 227 226 203 197 200 213 220 229 231 229 224 229 231 233 239 240 240 238 234 234 229 229 231 239 236 234 229
201 192 191 188 190 190 199 206 214 214 221 220 233 239 243 258 262 260 249 218 213 208 218 228 235 232 228 233 237 242 245 245 241 238 236 236 236 231 234 234 236 233 229
202 204 196 195 190 192 200 209 226 223 195 205 219 227 249 257 250 245 248 248 228 218 222 234 245 237 234 240 250 254 255 252 251 244 236 235 236 237 235 232 229 224 222
189 205 196 200 219 231 223 195 201 204 228 80 277 297 287 278 274 262 256 255 280 17 360 343 275 231 230 238 257 271 274 262 260 247 245 240 237 236 239 231 235 198 198
198 173 191 199 197 211 166 143 96 106 65 279 255 251 258 266 278 294 303 28 89 107 118 228 267 249 245 250 255 263 264 267 264 257 253 247 246 243 238 232 238 197 217
194 181 185 194 215 197 190 155 173 203 203 206 272 315 296 289 291 306 272 265 274 239 237 239 266 289 261 260 258 264 267 257 263 278 273 261 257 245 247 231 214 214 212
183 177 183 191 210 176 202 205 206 211 291 214 16 329 311 284 273 238 221 255 268 251 237 281 263 231 248 258 278 273 270 281 276 272 279 274 261 262 257 213 234 228 219
182 184 184 181 184 168 219 251 78 23 290 245 236 76 307 329 321 263 274 290 288 310 276 284 280 275 270 272 254 247 324 325 309 295 279 272 267 253 249 224 221 224 240
167 164 170 167 171 125 192 222 170 201 227 271 220 170 344 247 336 319 288 283 299 273 263 248 250 337 318 287 237 246 244 312 291 313 305 291 327 325 259 253 251 250 249
128 134 150 152 132 135 156 254 233 234 194 264 324 230 209 199 224 311 307 294 280 265 257 239 282 255 235 221 201 202 221 216 313 318 343 1 22 61 14 312 287 290 303
127 155 144 119 93 120 198 214 250 267 229 258 231 312 294 281 216 224 274 308 312 288 297 228 238 222 227 198 207 214 209 254 275 257 47 13 13 360 314 283 296 287 301
148 150 155 138 144 144 160 209 227 190 254 240 255 255 222 237 302 208 262 264 262 295 272 265 276 257 210 213 203 187 213 251 231 250 199 315 315 310 272 304 315 268 236
119 142 108 105 91 96 80 78 49 32 44 67 22 325 342 283 195 225 240 286 276 309 307 292 292 252 249 207 193 194 230 269 274 271 253 249 258 278 277 269 240 245 234
103 95 94 89 82 83 84 74 91 82 48 40 13 358 333 333 9 265 269 283 289 260 299 287 315 360 6 315 262 249 317 299 277 268 286 293 276 256 253 265 265 243 211
100 95 98 94 89 84 69 67 49 38 42 25 24 29 9 9 16 30 23 180 253 305 301 300 330 1 353 26 34 59 37 358 320 291 277 277 277 267 248 227 224 242 217
104 100 102 103 85 66 57 56 41 22 39 21 23 32 29 14 19 9 341 335 13 271 308 326 316 295 304 301 237 211 238 222 244 287 279 228 240 255 250 237 206 239 231
109 116 107 92 90 79 60 55 53 39 38 24 16 20 17 30 21 27 34 26 24 12 344 322 311 307 304 300 293 231 236 246 261 263 260 273 267 237 244 231 218 203 210
88 85 79 77 64 56 54 55 54 41 32 16 7 8 353 1 42 43 44 26 32 21 12 323 311 335 322 327 318 330 312 275 235 262 274 285 280 264 257 258 239 223 221
76 69 73 67 72 62 57 50 45 38 23 14 352 339 325 33 43 31 41 36 24 14 14 338 311 317 322 15 354 11 360 356 3 354 348 302 287 275 261 247 241 244 239
76 67 71 80 70 63 51 40 32 24 9 346 332 333 14 53 60 39 42 31 21 5 347 338 333 339 338 344 357 348 343 354 332 335 328 2 359 354 339 293 284 275 270
71 73 78 82 77 63 45 32 17 5 348 333 337 71 61 65 63 53 41 9 0 336 326 327 324 317 320 331 333 321 321 313 321 278 334 337 331 328 327 335 333 317 296
67 70 86 84 71 58 25 22 19 360 351 29 38 82 112 50 41 34 12 353 334 310 309 314 317 318 323 330 315 306 305 325 324 313 338 305 303 302 300 296 298 303 301
89 78 90 86 75 57 30 13 9 22 352 19 23 5 54 50 33 15 349 338 332 333 358 332 348 327 320 317 316 313 307 305 288 288 303 288 295 278 278 286 288 287 287
86 95 95 93 78 54 33 13 10 4 20 10 16 63 76 46 21 3 334 338 334 350 15 346 329 302 296 309 305 303 303 293 286 293 268 281 289 279 286 281 270 268 268
82 82 90 95 85 49 36 26 26 25 24 29 53 62 65 41 1 357 0 344 341 342 330 312 301 296 307 320 310 313 315 313 306 307 293 277 283 288 292 288 279 261 261
99 93 94 101 108 78 46 40 33 30 14 2 80 76 59 37 10 10 10 359 355 333 324 328 332 322 300 285 285 274 296 313 316 309 307 327 300 301 283 250 273 279 292